Tracking 35331 objects as of 15-Sep-2026
HD Live streaming from Space Station
objects crossing your sky now

COSMOS 1408 DEB


COSMOS 1408 DEB is no longer on orbit


NORAD ID: 50339
Int'l Code: 1982-092AAZ
Launch date: September 16, 1982
Source: Commonwealth of Independent States (former USSR) (CIS)
Launch site: PLESETSK MISSILE AND SPACE COMPLEX (PKMTR)
Decay date: 2022-03-14

Note: This is SATELLITE DEBRIS
Your satellite tracking list
Your tracking list is empty




NASA's NSSDC Master Catalog

Two Line Element Set (TLE):
1 50339U 82092AAZ 22073.27761212  .06548716  69689-1  20105-1 0  9998
2 50339  82.5724   3.2525 0012336 150.4499 209.7477 15.96557862 15976
Source of the keplerian elements: AFSPC